STARLINK-3784, 52275

Orbit data source: Space-Track

STARLINK-3784, 52275 is a payload satellite owned by SpaceX/Seattle (US) in LEO that was launched on Thu, 21 Apr 2022 UTC via an FALCON 9 launch vehicle from the Air Force Eastern Test Range (AFETR). Payload-class satellites include a variety of spacecraft equipped with specific instruments for various scientific and technological missions. These include communications satellites like Starlink; space stations such as the ISS; scientific satellites like the Hubble; Earth observation satellites from companies like Planet Labs, Umbra, and HawkEye 360; GPS; miniature CubeSats for education and research; and military/defense satellites.

Loading next visibility...
Identifier
52275, 2022-041Q
Orbit
LEO
Country
Flag of USUS
Related business
Manufacturer
SpaceX/Seattle
Mission
Operational Commercial Communications
Bus & Motor
STARLINK, Unknown motor
Mass
297 kg wet, ~275 kg dry
Launch date (UTC)
2022-04-21 (4 years ago)
Launch vehicle
FALCON 9
Launch site
Air Force Eastern Test Range (AFETR)
Object type
Payload
Rocket body
Debris
Shape & HBR
Box + 1 Pan, 10.1 m
Radar Cross Section
11.087 m², Large (>1 m²)

Expand to show TLE details & history
Last TLE update: 19 hours ago

TLE from 19 hours ago
0 STARLINK-3784
1 52275U 22041Q   26175.19664352  .00001816  00000-0  13237-3 0  9992
2 52275  53.1616 350.8585 0006498 142.7889 217.3554 15.08797496230441
Epoch: 2026-06-24T04:43Z
TLE epoch observation values (Epoch: 2026-06-24T04:43:10.000Z)
Latitude
0.00001°
Longitude
7.70952°
Altitude
544.339 km
Speed
7.589 km/s
True Right ascension
23h 23m 26s
True Declination
0° 00' 00"
Sunlit
Object was in daylight at epoch
Visualization orbit readout
Latitude
Unknown
Longitude
Unknown
Altitude
Unknown
Speed
Unknown
Apparent Right ascension
Unknown
Apparent Declination
Unknown
Sunlit
N/A
Visualization observer readout
Local Sidereal Time
10:33:32
Azimuth
Unknown
Elevation
Unknown
Doppler factor
Unknown
Orbital elements
Apogee altitude
544.623 km
Perigee altitude
535.632 km
Semi-major axis
6,918.264 km
Eccentricity
0.00065
Inclination
53.1616°
RAAN
350.8585°
Arg. of periapsis
142.7889°
True anomaly
217.31025°
Mean anomaly
217.3554°
Eccentric anomaly
217.33282°
Mean motion
3.77179 °/min
Orbital period
95.45 mins
BSTAR
0.00013237
Loading maneuver chart data...
Computing Atmospheric mass density...
Loading historical data...
Loading historical data...
Loading historical data...
Loading historical data...
Loading historical data...
Loading historical data...
Loading historical data...

Documentation

Showing up to 5 results
|